This is the latest recevied weather packets stored in our database for station/object N2PUI. If no packets are shown the sender has not sent any weather packets the latest 10 day(s).
| Time | Temp. | Humidity | Pressure | Rain* | Wind** | Luminosity | Snow |
|---|---|---|---|---|---|---|---|
| 1777419570 | 12.22° C | 67% | 1016.5 hPa | 0 mm | - | 4 W/m² | - |
| 1777419269 | 12.22° C | 67% | 1016.8 hPa | 0 mm | - | 6 W/m² | - |
| 1777418966 | 12.22° C | 67% | 1016.8 hPa | 0 mm | - | 5 W/m² | - |
| 1777418661 | 12.22° C | 66% | 1016.9 hPa | 0 mm | - | 7 W/m² | - |
| 1777418358 | 12.22° C | 66% | 1016.8 hPa | 0 mm | - | 10 W/m² | - |
| 1777418054 | 12.22° C | 66% | 1016.7 hPa | 0 mm | - | 13 W/m² | - |
| 1777417750 | 12.22° C | 66% | 1016.9 hPa | 0 mm | - | 16 W/m² | - |
| 1777417445 | 12.22° C | 65% | 1017.1 hPa | 0 mm | - | 22 W/m² | - |
| 1777417142 | 12.22° C | 65% | 1016.9 hPa | 0 mm | - | 23 W/m² | - |
| 1777416837 | 12.22° C | 64% | 1017.2 hPa | 0 mm | - | 21 W/m² | - |
| 1777416534 | 12.22° C | 65% | 1017.1 hPa | 0 mm | - | 23 W/m² | - |
| 1777416230 | 12.78° C | 65% | 1017.2 hPa | 0 mm | - | 29 W/m² | - |
| 1777415929 | 12.78° C | 66% | 1017.3 hPa | 0 mm | - | 37 W/m² | - |
| 1777415625 | 12.78° C | 65% | 1017.1 hPa | 0 mm | - | 47 W/m² | - |
| 1777415321 | 12.78° C | 64% | 1017.2 hPa | 0 mm | - | 59 W/m² | - |
| 1777415016 | 12.78° C | 64% | 1017.2 hPa | 0 mm | - | 61 W/m² | - |
| 1777414715 | 12.78° C | 64% | 1017 hPa | 0 mm | - | 72 W/m² | - |
| 1777414412 | 12.78° C | 62% | 1016.9 hPa | 0 mm | - | 69 W/m² | - |
| 1777414110 | 12.78° C | 63% | 1017 hPa | 0 mm | - | 108 W/m² | - |
| 1777413806 | 13.33° C | 59% | 1017 hPa | 0 mm | - | 152 W/m² | - |
| 1777413501 | 13.33° C | 59% | 1016.7 hPa | 0 mm | - | 296 W/m² | - |
| 1777413198 | 13.33° C | 59% | 1017 hPa | 0 mm | - | 223 W/m² | - |
| 1777412893 | 13.33° C | 59% | 1017.1 hPa | 0 mm | - | 72 W/m² | - |
| 1777412593 | 13.89° C | 57% | 1017 hPa | 0 mm | - | 88 W/m² | - |
| 1777412289 | 13.89° C | 56% | 1017.3 hPa | 0 mm | - | 121 W/m² | - |
* Rain latest hour (hover to see other rain measurements)
** Current wind speed in m/s (hover to see current wind gust speed)